KZR203 UACC-OMDB

Flight info

Callsign KZR203
Flight time N/A
Altitude 34000
Route KOKON1B KOKON M75 DZG N990 AGNAN/N0461F340 R433 ABDAN B114 RIKOP M324 PATAT L519 PUVAL
Aircraft A21N/M-SDE3FGHIRWY/LB1

Departure

Time N/A
Airport Nursultan Nazarbayev International Airport (UACC)

Arrival

Time 2026-04-30 17:39
Airport Dubai International Airport (OMDB)
Time Latitude Longitude Altitude Speed Heading
2026-04-30 13:15 50.68747 70.95558 12043 ft 367 kts 211°
2026-04-30 13:16 50.66588 70.93387 12505 ft 370 kts 211°
2026-04-30 13:16 50.64401 70.91185 12971 ft 373 kts 211°
2026-04-30 13:16 50.62207 70.88974 13437 ft 376 kts 211°
2026-04-30 13:17 50.57780 70.84524 14303 ft 382 kts 211°
2026-04-30 13:17 50.55536 70.82269 14736 ft 384 kts 211°
2026-04-30 13:17 50.51004 70.77691 15595 ft 388 kts 212°
2026-04-30 13:18 50.48719 70.75378 16002 ft 390 kts 212°
2026-04-30 13:18 50.44153 70.70769 16817 ft 395 kts 212°
2026-04-30 13:18 50.41834 70.68434 17214 ft 397 kts 212°
2026-04-30 13:19 50.39505 70.66091 17604 ft 399 kts 212°
2026-04-30 13:19 50.37169 70.63746 17987 ft 401 kts 212°
2026-04-30 13:19 50.34812 70.61382 18350 ft 403 kts 212°
2026-04-30 13:19 50.32445 70.59010 18668 ft 405 kts 212°
2026-04-30 13:20 50.30053 70.56615 18997 ft 407 kts 212°
2026-04-30 13:20 50.27662 70.54224 19326 ft 409 kts 212°
2026-04-30 13:20 50.25257 70.51826 19649 ft 411 kts 212°
2026-04-30 13:20 50.22867 70.49447 19972 ft 413 kts 212°
2026-04-30 13:21 50.20439 70.47030 20305 ft 415 kts 212°
2026-04-30 13:21 50.18003 70.44604 20642 ft 417 kts 212°
2026-04-30 13:21 50.15544 70.42160 20954 ft 419 kts 212°
2026-04-30 13:22 50.10599 70.37255 21579 ft 423 kts 212°
2026-04-30 13:22 50.08145 70.34826 21888 ft 424 kts 212°
2026-04-30 13:22 50.03125 70.29866 22494 ft 428 kts 212°
2026-04-30 13:23 50.00605 70.27379 22788 ft 430 kts 212°
2026-04-30 13:23 49.95521 70.22376 23370 ft 434 kts 212°
2026-04-30 13:24 49.90389 70.17347 23878 ft 438 kts 212°
2026-04-30 13:24 49.85250 70.12313 24373 ft 441 kts 212°
2026-04-30 13:25 49.80051 70.07233 24871 ft 444 kts 212°
2026-04-30 13:25 49.74803 70.02131 25345 ft 446 kts 212°
2026-04-30 13:26 49.66867 69.94420 25984 ft 450 kts 212°
2026-04-30 13:26 49.61538 69.89276 26384 ft 453 kts 212°
2026-04-30 13:27 49.56204 69.84115 26888 ft 452 kts 212°
2026-04-30 13:28 49.48231 69.76435 27682 ft 450 kts 211°
2026-04-30 13:28 49.42927 69.71361 28212 ft 448 kts 211°
2026-04-30 13:28 49.40276 69.68828 28463 ft 448 kts 211°
2026-04-30 13:29 49.34996 69.63798 28981 ft 446 kts 211°
2026-04-30 13:29 49.29757 69.58815 29496 ft 445 kts 211°
2026-04-30 13:30 49.21872 69.51324 30205 ft 444 kts 211°
2026-04-30 13:31 49.16627 69.46344 30606 ft 443 kts 211°
2026-04-30 13:31 49.08759 69.38909 31204 ft 443 kts 211°
2026-04-30 13:32 49.03508 69.33962 31403 ft 447 kts 211°
2026-04-30 13:32 48.98209 69.28895 31748 ft 445 kts 211°
2026-04-30 13:33 48.92979 69.24051 32265 ft 441 kts 210°
2026-04-30 13:33 48.87734 69.19226 32662 ft 440 kts 210°
2026-04-30 13:34 48.85110 69.16798 32849 ft 440 kts 211°
2026-04-30 13:34 48.77301 69.09522 33418 ft 438 kts 211°
2026-04-30 13:35 48.74730 69.07132 33584 ft 438 kts 211°
2026-04-30 13:35 48.69531 69.02317 33887 ft 439 kts 211°
2026-04-30 13:36 48.64306 68.97485 33910 ft 441 kts 211°
2026-04-30 13:36 48.56445 68.90247 33910 ft 441 kts 211°
2026-04-30 13:37 48.48579 68.83022 33909 ft 441 kts 211°
2026-04-30 13:38 48.40700 68.75829 33932 ft 442 kts 210°
2026-04-30 13:39 48.30178 68.66276 33937 ft 442 kts 210°
2026-04-30 13:40 48.22311 68.59150 33941 ft 442 kts 210°
2026-04-30 13:40 48.17039 68.54376 33938 ft 442 kts 210°
2026-04-30 13:41 48.11775 68.49622 33935 ft 442 kts 210°
2026-04-30 13:41 48.06503 68.44889 33938 ft 442 kts 210°
2026-04-30 13:42 48.01231 68.40174 33935 ft 442 kts 210°
2026-04-30 13:42 47.93314 68.33092 33933 ft 442 kts 210°
2026-04-30 13:43 47.88033 68.28383 33934 ft 442 kts 210°
2026-04-30 13:43 47.82791 68.23719 33935 ft 442 kts 210°
2026-04-30 13:44 47.77500 68.19022 33933 ft 442 kts 210°
2026-04-30 13:44 47.72214 68.14348 33927 ft 442 kts 210°
2026-04-30 13:45 47.64287 68.07346 33923 ft 442 kts 210°
2026-04-30 13:46 47.58996 68.02694 33923 ft 441 kts 210°
2026-04-30 13:46 47.53744 67.98095 33926 ft 441 kts 210°
2026-04-30 13:47 47.48456 67.93469 33929 ft 442 kts 210°
2026-04-30 13:47 47.43171 67.88843 33932 ft 442 kts 210°
2026-04-30 13:48 47.37877 67.84226 33940 ft 442 kts 210°
2026-04-30 13:48 47.32579 67.79621 33938 ft 442 kts 210°
2026-04-30 13:49 47.27266 67.75015 33936 ft 442 kts 210°
2026-04-30 13:49 47.21953 67.70423 33937 ft 443 kts 210°
2026-04-30 13:50 47.16636 67.65831 33935 ft 443 kts 210°
2026-04-30 13:50 47.09546 67.59717 33930 ft 444 kts 210°
2026-04-30 13:51 47.04226 67.55142 33930 ft 444 kts 210°
2026-04-30 13:51 46.98888 67.50575 33911 ft 444 kts 210°
2026-04-30 13:52 46.93540 67.46022 33925 ft 445 kts 210°
2026-04-30 13:52 46.88190 67.41465 33911 ft 445 kts 210°
2026-04-30 13:53 46.82831 67.36894 33924 ft 446 kts 210°
2026-04-30 13:53 46.77500 67.32367 33917 ft 446 kts 210°
2026-04-30 13:54 46.72129 67.27819 33911 ft 446 kts 210°
2026-04-30 13:54 46.66756 67.23288 33906 ft 447 kts 210°
2026-04-30 13:55 46.61372 67.18760 33913 ft 447 kts 210°
2026-04-30 13:55 46.55987 67.14229 33915 ft 447 kts 210°
2026-04-30 13:56 46.50596 67.09705 33911 ft 448 kts 210°
2026-04-30 13:56 46.45199 67.05188 33911 ft 448 kts 210°
2026-04-30 13:57 46.39798 67.00684 33909 ft 448 kts 210°
2026-04-30 13:57 46.34424 66.96205 33909 ft 448 kts 210°
2026-04-30 13:58 46.26327 66.89463 33902 ft 448 kts 210°
2026-04-30 13:59 46.20924 66.84997 33901 ft 447 kts 210°
2026-04-30 13:59 46.15524 66.80545 33903 ft 447 kts 210°
2026-04-30 14:00 46.10121 66.76086 33900 ft 447 kts 210°
2026-04-30 14:00 46.02032 66.69430 33894 ft 446 kts 210°
2026-04-30 14:01 45.96668 66.65034 33889 ft 446 kts 210°
2026-04-30 14:01 45.91273 66.60619 33889 ft 446 kts 210°
2026-04-30 14:02 45.85878 66.56226 33893 ft 445 kts 210°
2026-04-30 14:02 45.80490 66.51833 33888 ft 445 kts 210°
2026-04-30 14:03 45.75112 66.47450 33886 ft 445 kts 210°
2026-04-30 14:03 45.69726 66.43078 33880 ft 444 kts 210°
2026-04-30 14:04 45.64346 66.38733 33884 ft 444 kts 210°
2026-04-30 14:04 45.58998 66.34421 33886 ft 444 kts 210°
2026-04-30 14:05 45.53623 66.30101 33880 ft 443 kts 210°
2026-04-30 14:05 45.48216 66.25754 33879 ft 443 kts 210°
2026-04-30 14:06 45.40199 66.19321 33876 ft 442 kts 210°
2026-04-30 14:07 45.32150 66.12896 33878 ft 441 kts 210°
2026-04-30 14:08 45.24108 66.06498 33876 ft 440 kts 210°
2026-04-30 14:08 45.16122 66.00161 33870 ft 439 kts 210°
2026-04-30 14:09 45.10765 65.95923 33870 ft 439 kts 210°
2026-04-30 14:10 45.02804 65.89643 33879 ft 437 kts 210°
2026-04-30 14:10 44.97489 65.85463 33874 ft 437 kts 209°
2026-04-30 14:11 44.92175 65.81288 33860 ft 436 kts 209°
2026-04-30 14:11 44.86863 65.77130 33851 ft 435 kts 209°
2026-04-30 14:12 44.81575 65.72997 33845 ft 435 kts 209°
2026-04-30 14:12 44.76297 65.68864 33838 ft 434 kts 209°
2026-04-30 14:13 44.71028 65.64756 33835 ft 433 kts 209°
2026-04-30 14:13 44.65750 65.60661 33837 ft 433 kts 209°
2026-04-30 14:14 44.60481 65.56580 33838 ft 432 kts 209°
2026-04-30 14:14 44.55207 65.52502 33842 ft 432 kts 209°
2026-04-30 14:15 44.49949 65.48446 33846 ft 431 kts 209°
2026-04-30 14:15 44.44690 65.44393 33853 ft 431 kts 209°
2026-04-30 14:16 44.39469 65.40379 33854 ft 431 kts 208°
2026-04-30 14:16 44.34206 65.36338 33853 ft 431 kts 208°
2026-04-30 14:17 44.28946 65.32303 33856 ft 431 kts 208°
2026-04-30 14:17 44.23697 65.28282 33850 ft 430 kts 208°
2026-04-30 14:18 44.18444 65.24270 33851 ft 430 kts 208°
2026-04-30 14:18 44.10598 65.18321 33857 ft 429 kts 208°
2026-04-30 14:19 44.02727 65.12362 33854 ft 429 kts 208°
2026-04-30 14:20 43.97494 65.08399 33850 ft 428 kts 208°
2026-04-30 14:20 43.89679 65.02490 33843 ft 428 kts 208°
2026-04-30 14:21 43.84453 64.98564 33843 ft 427 kts 208°
2026-04-30 14:22 43.76618 64.92687 33839 ft 427 kts 208°
2026-04-30 14:22 43.68760 64.86890 33839 ft 426 kts 206°
2026-04-30 14:23 43.58074 64.79819 33843 ft 425 kts 205°
2026-04-30 14:24 43.50101 64.74512 33843 ft 425 kts 206°
2026-04-30 14:25 43.39478 64.67397 33844 ft 426 kts 206°
2026-04-30 14:26 43.31473 64.62078 33853 ft 426 kts 206°
2026-04-30 14:27 43.23453 64.56765 33844 ft 429 kts 205°
2026-04-30 14:27 43.18039 64.53187 33844 ft 435 kts 205°
2026-04-30 14:28 43.09781 64.47736 33854 ft 443 kts 205°
2026-04-30 14:28 43.04239 64.44085 33850 ft 445 kts 205°
2026-04-30 14:29 42.94003 64.37363 33859 ft 445 kts 206°
2026-04-30 14:31 42.79066 64.27594 33879 ft 447 kts 205°
2026-04-30 14:31 42.70682 64.22143 33894 ft 447 kts 205°
2026-04-30 14:32 42.65094 64.18511 34157 ft 442 kts 206°
2026-04-30 14:32 42.62329 64.16718 34392 ft 437 kts 206°
2026-04-30 14:32 42.59633 64.14945 34613 ft 427 kts 209°
2026-04-30 14:33 42.57126 64.12827 34803 ft 423 kts 214°
2026-04-30 14:33 42.49732 64.06140 34885 ft 430 kts 213°
2026-04-30 14:34 42.44699 64.01635 34882 ft 436 kts 214°
2026-04-30 14:34 42.39620 63.97073 34887 ft 441 kts 214°
2026-04-30 14:35 42.31904 63.90148 34887 ft 445 kts 214°
2026-04-30 14:36 42.26746 63.85540 34891 ft 445 kts 214°
2026-04-30 14:36 42.21566 63.80920 34898 ft 446 kts 214°
2026-04-30 14:37 42.16385 63.76304 34905 ft 447 kts 214°
2026-04-30 14:37 42.11191 63.71670 34915 ft 447 kts 214°
2026-04-30 14:38 42.05990 63.67061 34920 ft 447 kts 214°
2026-04-30 14:38 42.01667 63.63238 34921 ft 447 kts 214°
2026-04-30 14:39 41.95605 63.57883 34922 ft 447 kts 214°
2026-04-30 14:39 41.91282 63.54073 34922 ft 447 kts 214°
2026-04-30 14:40 41.82606 63.46453 34933 ft 448 kts 214°
2026-04-30 14:40 41.78240 63.42620 34933 ft 447 kts 214°
2026-04-30 14:41 41.73038 63.38058 34935 ft 447 kts 214°
2026-04-30 14:41 41.67869 63.33534 34939 ft 447 kts 214°
2026-04-30 14:42 41.62666 63.29002 34940 ft 447 kts 214°
2026-04-30 14:42 41.57427 63.24446 34923 ft 445 kts 214°
2026-04-30 14:43 41.52235 63.19948 34923 ft 445 kts 214°
2026-04-30 14:43 41.47065 63.15423 34923 ft 444 kts 214°
2026-04-30 14:44 41.41914 63.10876 34925 ft 444 kts 214°
2026-04-30 14:44 41.36752 63.06350 34938 ft 444 kts 214°
2026-04-30 14:45 41.31568 63.01845 34947 ft 445 kts 214°
2026-04-30 14:45 41.26381 62.97345 34952 ft 445 kts 214°
2026-04-30 14:46 41.21225 62.92864 34952 ft 445 kts 214°
2026-04-30 14:46 41.16086 62.88397 34958 ft 445 kts 214°
2026-04-30 14:47 41.10903 62.83908 34960 ft 444 kts 214°
2026-04-30 14:47 41.05733 62.79443 34963 ft 444 kts 214°
2026-04-30 14:48 41.00550 62.74976 34966 ft 444 kts 215°
2026-04-30 14:48 40.95366 62.70515 34967 ft 444 kts 215°
2026-04-30 14:49 40.90182 62.66058 34938 ft 443 kts 215°
2026-04-30 14:49 40.85016 62.61621 34945 ft 442 kts 215°
2026-04-30 14:50 40.77262 62.55011 34939 ft 442 kts 215°
2026-04-30 14:51 40.69552 62.48420 34951 ft 442 kts 215°
2026-04-30 14:52 40.61799 62.41820 34965 ft 443 kts 215°
2026-04-30 14:52 40.54041 62.35243 34973 ft 443 kts 215°
2026-04-30 14:53 40.46267 62.28665 34977 ft 443 kts 215°
2026-04-30 14:54 40.36517 62.19033 34977 ft 437 kts 233°
2026-04-30 14:55 40.30896 62.09622 34984 ft 437 kts 232°
2026-04-30 14:56 40.23353 61.97124 34994 ft 437 kts 232°
2026-04-30 14:57 40.17729 61.87805 34996 ft 436 kts 232°
2026-04-30 14:58 40.10194 61.75379 34971 ft 432 kts 232°
2026-04-30 14:58 40.04624 61.66207 34977 ft 431 kts 232°
2026-04-30 15:00 39.95288 61.50924 34983 ft 431 kts 232°
2026-04-30 15:01 39.87817 61.38752 34988 ft 430 kts 232°
2026-04-30 15:01 39.82220 61.29643 34987 ft 429 kts 232°
2026-04-30 15:02 39.78481 61.23588 35002 ft 429 kts 232°
2026-04-30 15:03 39.69147 61.08491 35002 ft 428 kts 232°
2026-04-30 15:04 39.59778 60.93440 35040 ft 429 kts 232°
2026-04-30 15:06 39.50400 60.78433 35025 ft 428 kts 232°
2026-04-30 15:07 39.42883 60.66461 35032 ft 428 kts 232°
2026-04-30 15:08 39.35360 60.54520 35052 ft 429 kts 232°
2026-04-30 15:09 39.25932 60.39637 35074 ft 429 kts 232°
2026-04-30 15:10 39.18370 60.27719 35081 ft 429 kts 231°
2026-04-30 15:11 39.06993 60.09918 35094 ft 429 kts 231°
2026-04-30 15:13 38.97503 59.95114 35094 ft 429 kts 231°
2026-04-30 15:14 38.84190 59.74484 35103 ft 429 kts 231°
2026-04-30 15:17 38.67022 59.48070 35111 ft 428 kts 231°
2026-04-30 15:19 38.52376 59.24128 35116 ft 427 kts 235°
2026-04-30 17:39 25.24376 55.37282 36 ft 0 kts 210°